This demonstration page uses our WeatherBlox Daily Observations layout. Learn more.

Left ArrowRight Arrow

Hourly Observations for August 12, 2022

Temp ( °F °C ) Dew Point ( °F °C ) Humidity (%) Winds ( mph kmh ) Pressure ( in mb ) Visibility ( mi km ) Precip ( " mm )
12:52 am 00:52 Clear 70 21.1 63 17.2 78 78 Calm 30.10 1019 10 16 0.00 0.00
1:52 am 01:52 Clear 67 19.4 62 16.7 84 84 SE 3 6 30.09 1019 10 16 0.00 0.00
2:52 am 02:52 Clear 69 20.6 61 16.1 75 75 E 3 6 30.10 1019 10 16 0.00 0.00
3:52 am 03:52 Clear 69 20.6 61 16.1 75 75 Calm 30.10 1019 10 16 0.00 0.00
4:52 am 04:52 Clear 66 18.9 61 16.1 84 84 Calm 30.11 1020 10 16 0.00 0.00
5:52 am 05:52 Clear 65 18.3 61 16.1 87 87 Calm 30.12 1020 10 16 0.00 0.00
6:52 am 06:52 Sunny 66 18.9 62 16.7 87 87 Calm 30.13 1020 10 16 0.00 0.00
7:52 am 07:52 Sunny 70 21.1 64 17.8 81 81 SE 3 6 30.14 1021 10 16 0.00 0.00
8:52 am 08:52 Sunny 75 23.9 64 17.8 69 69 SE 6 9 30.15 1021 10 16 0.00 0.00
9:52 am 09:52 Sunny 78 25.6 65 18.3 64 64 SSE 8 13 30.14 1021 10 16 0.00 0.00
10:52 am 10:52 Mostly Sunny 79 26.1 67 19.4 67 67 SE 8 13 30.15 1021 10 16 0.00 0.00
11:52 am 11:52 Sunny 82 27.8 65 18.3 56 56 SSE 6 9 30.13 1020 10 16 0.00 0.00
12:52 pm 12:52 Sunny 84 28.9 62 16.7 48 48 VRB 5 7 30.12 1020 10 16 0.00 0.00
1:52 pm 13:52 Sunny 85 29.4 64 17.8 50 50 Calm 30.11 1020 10 16 0.00 0.00
2:52 pm 14:52 Sunny 88 31.1 65 18.3 47 47 ENE 5 7 30.09 1019 10 16 0.00 0.00
3:52 pm 15:52 Mostly Sunny 88 31.1 63 17.2 43 43 E 5 7 30.08 1019 10 16 0.00 0.00
4:52 pm 16:52 Partly Cloudy 88 31.1 65 18.3 47 47 SE 7 11 30.07 1018 10 16 0.00 0.00
5:52 pm 17:52 Mostly Cloudy 86 30 66 18.9 51 51 E 6 9 30.07 1018 10 16 0.00 0.00
6:52 pm 18:52 Mostly Cloudy 85 29.4 67 19.4 55 55 SSE 9 15 30.06 1018 10 16 0.00 0.00
7:52 pm 19:52 Sunny 82 27.8 68 20 63 63 S 7 11 30.06 1018 10 16 0.00 0.00
8:52 pm 20:52 Clear 79 26.1 68 20 69 69 SSE 5 7 30.06 1018 10 16 0.00 0.00
9:52 pm 21:52 Clear 77 25 68 20 74 74 SE 5 7 30.08 1019 10 16 0.00 0.00
10:52 pm 22:52 Clear 76 24.4 68 20 77 77 SE 5 7 30.07 1018 10 16 0.00 0.00
11:52 pm 23:52 Clear 75 23.9 68 20 79 79 SE 6 9 30.07 1018 10 16 0.00 0.00

Powered by AerisWeather